[[{"header":{"parameterUnit":"m.s-1","parameterCategory":1,"la1":30.2991,"la2":30.254,"lo1":-89.0895,"lo2":-89.0444,"dy":0.0017,"dx":0.0017,"nx":28,"ny":28,"refTime":"2023-09-29T09:00:00:Z","depth":0,"parameterNumber":2,"parameterNumberName":"U-component_of_WINDS"},"data":[0,0,0,0,0,0,0,0,0,0,0,0,0,0,0,0,0,0,0,0,0,0,0,0,0,0,0,0,0,0,0,0,0,0,0,0,0,0,0,0,0,0,0,0,0,0,0,0,0,0,0,0,0,0,0,0,0,0,-2.704,-2.7039,0,-2.6988,-2.6987,-2.6986,-2.6912,-2.6911,-2.6909,-2.6908,-2.6857,-2.6857,-2.6857,0,0,0,0,0,0,0,0,0,0,0,0,0,-2.708,-2.708,-2.704,-2.7039,-2.7039,-2.6988,-2.6987,-2.6986,-2.6912,-2.691,-2.6909,-2.6907,-2.6857,-2.6857,-2.6857,0,0,0,0,0,0,0,0,0,0,0,0,0,-2.7049,-2.7079,-2.704,-2.6995,-2.6991,-2.6988,-2.6987,-2.6986,-2.6912,-2.691,-2.6908,-2.6907,-2.6857,-2.6857,-2.6857,-2.6894,0,0,-2.6856,-2.6856,0,0,0,0,0,0,0,0,-2.7051,-2.7047,-2.7003,-2.6998,-2.6993,-2.6954,-2.6982,-2.6955,-2.6913,-2.6942,-2.6908,-2.6906,-2.6891,-2.6888,-2.6883,-2.6892,-2.6889,-2.6856,-2.6856,-2.6856,-2.6856,0,0,0,0,0,0,0,-2.7053,-2.7049,-2.7019,-2.7002,-2.6996,-2.6979,-2.6973,-2.6977,-2.6928,-2.694,-2.6934,-2.6929,-2.6888,-2.6883,-2.6881,-2.6889,-2.6856,-2.6856,-2.6856,-2.6856,-2.6931,-2.6933,0,0,0,0,0,0,-2.7061,-2.7051,-2.7021,-2.7018,-2.7018,-2.698,-2.6973,-2.6969,-2.6928,-2.692,-2.693,-2.6925,-2.6884,-2.6881,-2.6879,-2.6923,-2.6856,-2.6856,-2.6855,-2.6929,-2.6932,-2.6934,0,0,0,0,0,0,-2.7062,-2.7059,-2.7023,-2.7033,-2.7027,-2.6982,-2.6978,-2.6969,-2.6963,-2.6921,-2.6912,-2.6934,-2.6883,-2.6879,-2.6892,-2.6921,-2.6855,-2.6855,-2.6926,-2.693,-2.6933,-2.7011,0,0,0,0,0,0,-2.7064,-2.706,-2.7072,-2.7034,-2.7027,-2.7036,-2.6979,-2.6969,-2.6963,-2.6956,-2.6922,-2.6914,-2.6881,-2.6893,-2.6892,-2.6919,-2.6855,-2.6924,-2.6928,-2.6932,-2.7006,-2.7017,-2.7026,0,0,0,0,0,-2.7065,-2.7096,-2.7073,-2.707,-2.7041,-2.7037,-2.7034,-2.6994,-2.6965,-2.6979,-2.6952,-2.6915,-2.6917,-2.6894,-2.6893,-2.6921,-2.6922,-2.6927,-2.6931,-2.7002,-2.7015,-2.7026,0,0,0,0,0,0,-2.7139,-2.709,-2.7064,-2.7083,-2.7065,-2.7025,-2.704,-2.7008,-2.6998,-2.6992,-2.6944,-2.6937,-2.6957,-2.6939,-2.6915,-2.6957,-2.6914,-2.6919,-2.6968,-2.698,-2.699,-2.6995,-2.6855,0,0,0,0,0,-2.7157,-2.7157,-2.7115,-2.7136,-2.7128,-2.7086,-2.7083,-2.7054,-2.7033,-2.7025,-2.6999,-2.6982,-2.6979,-2.6978,-2.6972,-2.7002,-2.6996,-2.7021,-2.7031,-2.704,-2.7045,-2.7064,-2.7076,-2.695,-2.695,-2.695,0,0,-2.7196,-2.7169,-2.7172,-2.715,-2.7132,-2.7136,-2.708,-2.7084,-2.7087,-2.7026,-2.7038,-2.7018,-2.6996,-2.7019,-2.7027,-2.7005,-2.7079,-2.7046,-2.7053,-2.7054,-2.7071,-2.7083,-2.7094,-2.6953,-2.6952,-2.6952,0,0,-2.7267,-2.7245,-2.7263,-2.7247,-2.7221,-2.7194,-2.7198,-2.7163,-2.7148,-2.7159,-2.7114,-2.7117,-2.7112,-2.7099,-2.7092,-2.7163,-2.7131,-2.7162,-2.7216,-2.7235,-2.7245,-2.7254,-2.7283,-2.7294,-2.7167,-2.7167,-2.7168,0,-2.7319,-2.732,-2.7275,-2.7284,-2.7278,-2.7223,-2.7242,-2.7228,-2.7203,-2.7201,-2.7175,-2.717,-2.7151,-2.7172,-2.719,-2.7184,-2.7191,-2.7167,-2.7247,-2.7255,-2.7263,-2.7291,-2.7301,-2.7172,-2.7171,-2.7171,-2.717,0,-2.7386,-2.7389,-2.7405,-2.7383,-2.7378,-2.7392,-2.7351,-2.7352,-2.7324,-2.73,-2.7314,-2.7289,-2.728,-2.7282,-2.7254,-2.7301,-2.7288,-2.7255,-2.7212,-2.728,-2.7306,-2.7315,-2.7178,-2.7177,-2.7175,-2.7174,0,0,-2.7503,-2.7458,-2.7465,-2.7456,-2.7425,-2.7427,-2.7439,-2.743,-2.7434,-2.7418,-2.743,-2.7428,-2.7399,-2.7391,-2.7362,-2.7378,-2.7442,-2.7344,-2.7343,-2.7367,-2.7497,-2.7524,-2.7537,-2.7419,-2.742,-2.7422,-2.75,0,-2.7572,-2.759,-2.7552,-2.7581,-2.7585,-2.7534,-2.7545,-2.7529,-2.7507,-2.7509,-2.7485,-2.7486,-2.7445,-2.7441,-2.7454,-2.7431,-2.7468,-2.7424,-2.7433,-2.7434,-2.7444,-2.7549,-2.7578,-2.7653,-2.7509,-2.7511,-2.7512,0,-2.7654,-2.7645,-2.7674,-2.7645,-2.7645,-2.7656,-2.7647,-2.7648,-2.763,-2.7613,-2.7606,-2.7572,-2.7585,-2.7541,-2.7561,-2.7532,-2.7533,-2.7523,-2.7525,-2.7527,-2.7479,-2.7558,-2.7675,-2.7688,-2.7526,-2.7525,-2.7524,0,-2.7743,-2.7736,-2.7754,-2.7747,-2.7713,-2.7723,-2.7709,-2.7688,-2.7687,-2.7679,-2.7678,-2.7671,-2.7669,-2.7666,-2.7633,-2.7603,-2.7658,-2.761,-2.7648,-2.7649,-2.7664,-2.7664,-2.7787,-2.7659,-2.7659,-2.7658,-2.7658,0,-2.7826,-2.7847,-2.7794,-2.7805,-2.7829,-2.7785,-2.781,-2.7791,-2.7774,-2.7783,-2.7737,-2.7747,-2.77,-2.7705,-2.7679,-2.7702,-2.77,-2.769,-2.7683,-2.7696,-2.7698,-2.7698,-2.7694,-2.7661,-2.7661,-2.766,-2.766,0,-2.7929,-2.7893,-2.791,-2.7877,-2.7869,-2.7888,-2.7861,-2.7871,-2.7847,-2.7859,-2.786,-2.7823,-2.7827,-2.7792,-2.779,-2.7772,-2.781,-2.7792,-2.7816,-2.7812,-2.7854,-2.7852,-2.7984,-2.8001,-2.7858,-2.786,-2.7861,0,-2.7986,-2.8001,-2.797,-2.7972,-2.7961,-2.7965,-2.7964,-2.7922,-2.7923,-2.7905,-2.7919,-2.792,-2.7918,-2.7928,-2.7902,-2.7901,-2.7886,-2.7932,-2.7886,-2.79,-2.7892,-2.7893,-2.7897,-2.7943,-2.7945,-2.7946,-2.7948,0,-2.8092,-2.8075,-2.8074,-2.8068,-2.8068,-2.8061,-2.8052,-2.8057,-2.8012,-2.8016,-2.802,-2.8019,-2.8017,-2.802,-2.8015,-2.8002,-2.797,-2.7962,-2.7972,-2.7987,-2.8002,-2.7999,-2.7847,-2.796,-2.7959,-2.7958,-2.7957,-2.7957,-2.8177,-2.819,-2.8171,-2.8173,-2.8161,-2.8155,-2.8164,-2.8142,-2.8144,-2.814,-2.8115,-2.8125,-2.811,-2.8099,-2.8091,-2.8099,-2.8077,-2.809,-2.8094,-2.8099,-2.8108,-2.7998,-2.8098,-2.8097,-2.8097,-2.8096,-2.8096,0,-2.8285,-2.8271,-2.8272,-2.8262,-2.8264,-2.8231,-2.822,-2.8225,-2.8234,-2.8222,-2.8222,-2.8229,-2.8232,-2.8207,-2.8208,-2.822,-2.8206,-2.8222,-2.8223,-2.8222,-2.8125,-2.8119,-2.8235,-2.8235,-2.8234,-2.8234,-2.8234,-2.8234,-2.8342,-2.8363,-2.8344,-2.8361,-2.8347,-2.8356,-2.8353,-2.8348,-2.8339,-2.8349,-2.8351,-2.8335,-2.8319,-2.8318,-2.8321,-2.8314,-2.8319,-2.8342,-2.833,-2.8241,-2.8228,-2.8215,-2.8209,-2.8342,-2.8342,-2.8426,-2.8427,-2.8427]},{"header":{"parameterUnit":"m.s-1","parameterCategory":1,"la1":30.2991,"la2":30.254,"lo1":-89.0895,"lo2":-89.0444,"dy":0.0017,"dx":0.0017,"nx":28,"ny":28,"refTime":"2023-09-29T09:00:00:Z","depth":0,"parameterNumber":3,"parameterNumberName":"V-component_of_WINDS"},"data":[0,0,0,0,0,0,0,0,0,0,0,0,0,0,0,0,0,0,0,0,0,0,0,0,0,0,0,0,0,0,0,0,0,0,0,0,0,0,0,0,0,0,0,0,0,0,0,0,0,0,0,0,0,0,0,0,0,0,1.245,1.2449,0,1.2408,1.2408,1.2407,1.2359,1.2358,1.2358,1.2357,1.2314,1.2313,1.2313,0,0,0,0,0,0,0,0,0,0,0,0,0,1.2485,1.2485,1.245,1.2449,1.2449,1.2408,1.2408,1.2407,1.2359,1.2358,1.2357,1.2357,1.2314,1.2313,1.2313,0,0,0,0,0,0,0,0,0,0,0,0,0,1.246,1.2485,1.245,1.242,1.2417,1.2409,1.2408,1.2407,1.2359,1.2358,1.2357,1.2356,1.2314,1.2313,1.2312,1.233,0,0,1.231,1.231,0,0,0,0,0,0,0,0,1.2461,1.2458,1.2425,1.2422,1.2418,1.2388,1.2404,1.2381,1.236,1.2381,1.2357,1.2356,1.2339,1.2336,1.2331,1.2328,1.2326,1.231,1.231,1.231,1.2309,0,0,0,0,0,0,0,1.2463,1.246,1.2433,1.2424,1.2421,1.2408,1.2403,1.24,1.2367,1.2379,1.2376,1.2371,1.2337,1.2332,1.2329,1.2326,1.231,1.231,1.2309,1.2309,1.2332,1.2333,0,0,0,0,0,0,1.2469,1.2462,1.2435,1.2432,1.2438,1.2408,1.2403,1.2399,1.2367,1.2361,1.2372,1.2369,1.2333,1.233,1.2328,1.2343,1.231,1.2309,1.2308,1.2331,1.2332,1.2333,0,0,0,0,0,0,1.247,1.2468,1.2436,1.2446,1.2441,1.2409,1.2405,1.2399,1.2393,1.2362,1.2355,1.2373,1.2332,1.2329,1.2329,1.2341,1.2309,1.2308,1.233,1.2331,1.2333,1.2377,0,0,0,0,0,0,1.2472,1.2468,1.2475,1.2446,1.2441,1.2439,1.2406,1.2398,1.2392,1.2387,1.236,1.2355,1.2331,1.233,1.2328,1.234,1.2307,1.2328,1.233,1.2332,1.2374,1.238,1.2385,0,0,0,0,0,1.2473,1.2489,1.2476,1.2473,1.2449,1.244,1.2437,1.2409,1.2393,1.2399,1.2379,1.2356,1.2341,1.2331,1.2328,1.234,1.2327,1.233,1.2332,1.2372,1.2379,1.2385,0,0,0,0,0,0,1.252,1.2485,1.2469,1.2477,1.2462,1.2432,1.2439,1.2418,1.2407,1.2403,1.237,1.2364,1.2368,1.2354,1.2344,1.2353,1.2331,1.2333,1.2362,1.2368,1.2373,1.2375,1.2307,0,0,0,0,0,1.2532,1.2528,1.2498,1.2507,1.2501,1.2471,1.2467,1.2447,1.243,1.2423,1.2402,1.2386,1.2377,1.2373,1.2363,1.2373,1.2365,1.2379,1.2384,1.2389,1.239,1.2391,1.2397,1.2341,1.2341,1.2341,0,0,1.2555,1.2535,1.2535,1.2516,1.2502,1.2498,1.2466,1.2464,1.246,1.2422,1.2421,1.2405,1.2385,1.2389,1.239,1.2378,1.2404,1.2392,1.2396,1.2394,1.2394,1.24,1.2404,1.2342,1.2342,1.2342,0,0,1.2594,1.258,1.2585,1.2572,1.2551,1.2531,1.2533,1.2506,1.2494,1.2492,1.2463,1.2458,1.2445,1.243,1.2421,1.2455,1.2432,1.2453,1.2479,1.2481,1.2485,1.2489,1.2498,1.2502,1.2455,1.2455,1.2455,0,1.2625,1.2618,1.2591,1.2589,1.2581,1.2548,1.2551,1.254,1.2517,1.2511,1.2498,1.2479,1.2464,1.2463,1.2471,1.2466,1.2464,1.2455,1.2487,1.249,1.2493,1.2502,1.2506,1.2457,1.2457,1.2457,1.2457,0,1.2656,1.2652,1.2659,1.2637,1.263,1.2632,1.2603,1.2599,1.258,1.2562,1.2559,1.2539,1.2523,1.2523,1.2505,1.2519,1.2511,1.2494,1.2469,1.2502,1.2509,1.2512,1.2461,1.246,1.2459,1.2459,0,0,1.2722,1.2685,1.2688,1.2677,1.2651,1.2647,1.2647,1.2632,1.2628,1.2614,1.2611,1.26,1.2583,1.2572,1.2553,1.2555,1.2579,1.2536,1.2535,1.2542,1.259,1.2602,1.2606,1.2565,1.2565,1.2566,1.2591,0,1.2754,1.2752,1.2727,1.2731,1.2725,1.2693,1.2693,1.2676,1.2659,1.2651,1.2632,1.2624,1.2603,1.2596,1.2597,1.2576,1.2587,1.2574,1.256,1.2559,1.2563,1.261,1.2623,1.2647,1.2594,1.2594,1.2594,0,1.2791,1.2779,1.2782,1.2755,1.2752,1.2752,1.2735,1.2729,1.271,1.2697,1.2685,1.2663,1.2659,1.2638,1.2631,1.2623,1.2616,1.2604,1.2605,1.26,1.2577,1.2604,1.2655,1.2658,1.2599,1.2599,1.2598,0,1.2835,1.282,1.2819,1.2811,1.278,1.2781,1.2768,1.2747,1.2739,1.2725,1.2719,1.2705,1.2697,1.2685,1.2659,1.2647,1.2654,1.2632,1.2641,1.2642,1.2642,1.2642,1.269,1.2643,1.2642,1.2642,1.2642,0,1.2872,1.2875,1.2838,1.2837,1.2839,1.281,1.2812,1.2797,1.2778,1.2773,1.2746,1.2741,1.2708,1.2699,1.2678,1.2674,1.2671,1.2659,1.2653,1.266,1.2662,1.2653,1.265,1.2643,1.2643,1.2643,1.2643,0,1.2921,1.2896,1.2893,1.2865,1.2857,1.286,1.2834,1.2832,1.2813,1.2807,1.2804,1.2774,1.2762,1.2735,1.2717,1.2703,1.2703,1.2694,1.2709,1.2705,1.2715,1.2713,1.2757,1.276,1.2714,1.2714,1.2714,0,1.2944,1.2945,1.2917,1.2912,1.29,1.2892,1.2884,1.2856,1.2848,1.2826,1.2825,1.2812,1.2799,1.2781,1.2757,1.2742,1.2731,1.2747,1.2728,1.2734,1.2728,1.2727,1.2726,1.275,1.2751,1.2752,1.2752,0,1.2988,1.2976,1.2965,1.2951,1.2942,1.2929,1.2915,1.2912,1.288,1.2873,1.286,1.285,1.2831,1.2817,1.2798,1.2783,1.2761,1.2759,1.2759,1.2765,1.2773,1.2766,1.2718,1.2757,1.2757,1.2756,1.2756,1.2756,1.3022,1.3021,1.3001,1.299,1.2976,1.2963,1.2959,1.294,1.2929,1.2911,1.2896,1.2884,1.2863,1.2836,1.2823,1.2813,1.2802,1.2804,1.2804,1.2804,1.2806,1.2777,1.2809,1.2809,1.2809,1.2809,1.2809,0,1.3062,1.3047,1.3038,1.3018,1.301,1.2992,1.2975,1.2968,1.2959,1.2941,1.2929,1.2914,1.29,1.2876,1.2859,1.2855,1.2845,1.2852,1.285,1.2847,1.2818,1.2818,1.286,1.286,1.286,1.286,1.286,1.286,1.3081,1.3078,1.3063,1.3052,1.3038,1.3027,1.3018,1.3005,1.2991,1.2976,1.2965,1.2949,1.2928,1.291,1.2895,1.2888,1.2882,1.2892,1.2881,1.2854,1.2849,1.2844,1.2844,1.2891,1.2891,1.291,1.2911,1.2911]}]]